Location: Black Creek
(40.9000°S, 175.5500°E)
Time: 03:36:00
(UTC+00:00)

Cosmos 2098 Rocket - Pass Details

Date: 04 August 2024
Orbit: 357 x 1001 km, 82.9° (Epoch: 07 September)

Event Time Altitude Azimuth Distance (km) Brightness Sun altitude
Rises 18:06:18 0° 191° (S) 3,707 6.8 -14.3°
Reaches altitude 10° 18:08:50 10° 193° (SSW) 2,792 6.2 -13.8°
Maximum altitude 18:15:20 65° 273° (W) 1,117 4.1 -12.6°
Drops below altitude 10° 18:21:42 10° 353° (N) 2,733 6.4 -11.4°
Sets 18:24:10 0° 355° (N) 3,624 7.1 -11.0°
